STARLINK-37803, 69319

Orbit data source: Space-Track

STARLINK-37803, 69319 is a payload satellite owned by SpaceX/Seattle (US) in SSO that was launched on Sat, 30 May 2026 UTC via an FALCON 9 launch vehicle from the Air Force Western Test Range (AFWTR). Payload-class satellites include a variety of spacecraft equipped with specific instruments for various scientific and technological missions. These include communications satellites like Starlink; space stations such as the ISS; scientific satellites like the Hubble; Earth observation satellites from companies like Planet Labs, Umbra, and HawkEye 360; GPS; miniature CubeSats for education and research; and military/defense satellites.

Loading next visibility...
Identifier
69319, 2026-119Z
Orbit
SSO
Country
Flag of USUS
Related business
Manufacturer
SpaceX/Seattle
Mission
Operational Commercial Communications
Bus & Motor
STARLINK V2MO, Unknown motor
Mass
575 kg wet, ~530 kg dry
Launch date (UTC)
2026-05-30 (2 months ago)
Launch vehicle
FALCON 9
Launch site
Air Force Western Test Range (AFWTR)
Object type
Payload
Rocket body
Debris
Shape & HBR
Box + 1 Pan, 17.7 m
Radar Cross Section
41.120 m², Large (>1 m²)

Expand to show TLE details & history
Last TLE update: 16 hours ago

TLE from 16 hours ago
0 STARLINK-37803
1 69319U 26119Z   26219.61642574  .00006806  00000-0  21309-3 0  9990
2 69319  97.2848 245.0635 0001563  96.8733 263.2688 15.33425947 10698
Epoch: 2026-08-07T14:47Z
TLE epoch observation values (Epoch: 2026-08-07T14:47:39.183Z)
Latitude
-0.00001°
Longitude
67.01067°
Altitude
468.837 km
Speed
7.632 km/s
True Right ascension
16h 20m 15s
True Declination
0° 00' 00"
Sunlit
Object was in daylight at epoch
Visualization orbit readout
Latitude
Unknown
Longitude
Unknown
Altitude
Unknown
Speed
Unknown
Apparent Right ascension
Unknown
Apparent Declination
Unknown
Sunlit
N/A
Visualization observer readout
Local Sidereal Time
21:05:39
Azimuth
Unknown
Elevation
Unknown
Doppler factor
Unknown
Orbital elements
Apogee altitude
463.612 km
Perigee altitude
461.473 km
Semi-major axis
6,840.68 km
Eccentricity
0.00016
Inclination
97.2848°
RAAN
245.0635°
Arg. of periapsis
96.8733°
True anomaly
263.25101°
Mean anomaly
263.2688°
Eccentric anomaly
263.25991°
Mean motion
3.83614 °/min
Orbital period
93.84 mins
BSTAR
0.00021309
Loading maneuver chart data...
Computing Atmospheric mass density...
Loading historical data...
Loading historical data...
Loading historical data...
Loading historical data...
Loading historical data...
Loading historical data...
Loading historical data...

Documentation

Showing up to 5 results
|